Find Local Weather

World > North America > United States > Michigan

Lowell, Michigan Regional Weather

Lat: 42.93N, Lon: 85.35W
Wx Zone: MIZ057
Feedback
Expires:201812171200;;925162
ASUS43 KDTX 171110
RWRMI 
MICHIGAN HOURLY REGIONAL WEATHER ROUNDUP
NATIONAL WEATHER SERVICE DETROIT/PONTIAC MI
ISSUED BY NATIONAL WEATHER SERVICE GRAND RAPIDS MI
600 AM EST MON DEC 17 2018

NOTE: "FAIR" INDICATES FEW OR NO CLOUDS BELOW 12,000 FEET WITH NO
SIGNIFICANT WEATHER AND/OR OBSTRUCTION TO VISIBILITY.


MIZ043>046-050>051-056>058-064>065-071>073-077>080-171200-
SOUTHWEST LOWER MICHIGAN
  
CITY           SKY/WX    TMP DP  RH WIND       PRES   REMARKS
BATTLE CREEK   FAIR      32  27  81 W8        30.01R WCI  25          
BENTON HARBOR  FAIR      38  27  64 NW10G25   30.06S WCI  31          
BIG RAPIDS     FAIR      32  25  76 NW7       29.98R WCI  26          
COLDWATER      FAIR      33  31  94 W7        30.01R WCI  26          
HOLLAND        FAIR      38  24  57 NW12G24   30.03R WCI  30          
GRAND RAPIDS   FAIR      35  25  66 NW12      30.00R WCI  27          
KALAMAZOO      FAIR      33  27  78 W7        30.02R WCI  27          
MARSHALL       FAIR      30  30 100 W5        30.00R WCI  25          
MOUNT PLEASANT FAIR      32  26  77 W6        29.97R WCI  26          
MUSKEGON       FAIR      37  23  56 NW14      30.03R WCI  28          
STURGIS        FAIR      34  30  85 W6        30.02R WCI  29          
$$

SKY/WX - Weather  TMP - Temperature  DP - Dew Point  RH - Relative Humidity
WIND - Wind Direction/Speed PRES - Barometric Pressure